Location: Cork
(51.8990°N, 8.4960°W)
Time: 20:35:00
(UTC+01:00)

Iridium 66 - Visible Passes

Search period start: 22 July 2014 00:00
Search period end: 01 August 2014 00:00
Orbit: 776 x 779 km, 86.4° (Epoch: 22 July)

Date Brightness Start Highest point End Pass type
(mag) Time Alt. Az. Time Alt. Az. Time Alt. Az.
22 Jul 7.8 00:57:36 13° ESE 01:00:35 21° ENE 01:04:25 10° NNE visible
22 Jul 6.2 02:38:04 28° SSW 02:40:49 66° W 02:46:01 10° N visible
22 Jul 8.2 04:20:47 10° W 04:22:39 12° WNW 04:24:31 10° NW visible
23 Jul 8.3 00:25:11 10° E 00:27:27 13° ENE 00:29:43 10° NE visible
23 Jul 6.1 02:04:42 31° S 02:07:15 76° E 02:12:29 10° N visible
23 Jul 7.8 03:45:11 11° WSW 03:48:38 19° WNW 03:52:18 10° NNW visible
24 Jul 6.7 01:31:20 27° SE 01:33:49 46° E 01:38:47 10° NNE visible
24 Jul 7.2 03:11:49 18° WSW 03:14:45 30° WNW 03:19:20 10° NNW visible
25 Jul 7.4 00:57:58 19° ESE 01:00:30 28° E 01:04:54 10° NNE visible
25 Jul 6.5 02:38:26 27° SW 02:41:00 48° W 02:46:04 10° N visible
26 Jul 8.0 00:24:35 12° ESE 00:27:18 18° ENE 00:30:39 10° NE visible
26 Jul 6.0 02:05:03 34° SSW 02:07:22 80° W 02:12:37 10° N visible
26 Jul 8.2 03:46:15 10° W 03:49:01 14° WNW 03:51:48 10° NNW visible
26 Jul 8.4 23:53:22 10° ENE 23:54:13 10° ENE 23:55:04 10° ENE visible
27 Jul 6.2 01:31:40 34° SSE 01:33:52 62° E 01:39:01 10° N visible
27 Jul 7.6 03:12:08 15° WSW 03:15:03 23° WNW 03:19:09 10° NNW visible
28 Jul 6.9 00:58:16 26° SE 01:00:28 38° E 01:05:15 10° NNE visible
28 Jul 7.0 02:38:44 23° SW 02:41:13 36° WNW 02:46:02 10° N visible
29 Jul 7.6 00:24:52 17° ESE 00:27:12 23° ENE 00:31:15 10° NNE visible
29 Jul 6.3 02:05:20 33° SSW 02:07:31 59° W 02:12:41 10° N visible
29 Jul 8.4 03:48:25 10° WNW 03:49:28 11° WNW 03:50:31 10° NW visible
29 Jul 8.1 23:51:28 10° ESE 23:54:02 14° ENE 23:56:45 10° NE visible
30 Jul 6.0 01:31:56 39° S 01:33:56 84° E 01:39:11 10° N visible
30 Jul 8.0 03:12:24 11° WSW 03:15:24 17° WNW 03:18:49 10° NNW visible
31 Jul 6.4 00:58:31 33° SE 01:00:29 51° E 01:05:31 10° NNE visible
31 Jul 7.4 02:38:59 19° WSW 02:41:30 27° WNW 02:45:55 10° NNW visible
